Isfana

Kyrgyzstan     39˚50′18″N   69˚31′54″E
temp.,
°C
wind,
m/s
gust,
m/s
humid.,
%
clouds,
%
prec.,
mm/h
press.,
hPa
HPBL,
m
29 november, sun
sun2900:00−7˚sse214323 0.0 104124
03:00−7˚s22370 0.0 103923
06:00−6˚s22300 0.0 103822
09:00−6˚s22200 0.0 103821
12:00−1˚n11560 0.0 103577
15:00−1˚nne11770 0.0 103377
18:00−5˚se12580 0.0 103422
21:00−4˚sse22340 0.0 103522
30 november, mon
mon3000:00−4˚s33191 0.0 103522
03:00−4˚s331620 0.0 103323
06:00−4˚s331459 0.0 103222
09:00−2˚s3219100 0.0 103122
12:00+2˚sse116196 0.0 102931
15:00+2˚ne017399 0.0 102627
18:00se1150100 0.0 102622
21:00+1˚sse2236100 0.0 102724
1 december, tue
tue100:00s3340100 0.0 102727
03:00−1˚s334389 0.0 102630
06:00s225081 0.0 102630
09:00−1˚ssw1270100 0.5 102628
12:00ene1195100 1.9 102679
15:00+1˚ene129581 0.1 1025131
18:00−1˚ese128459 0.1 102622
21:00s22620 0.0 102827
2 december, wed
wed200:00s335310 0.0 102729
03:00s335280 0.0 102728
06:00s335490 0.0 102725
09:00s335487 0.0 102728
12:00+4˚wsw128493 0.0 102675
15:00+4˚nw018592 0.0 102453
18:00+1˚ssw117295 0.0 102422
21:00+1˚sse116488 0.0 102523
3 december, thu
thu300:00+1˚sse225785 0.0 102525
03:00+2˚s2256100 0.0 102425
06:00+2˚sse3356100 0.0 102425
09:00+2˚s2258100 0.0 102426
12:00+4˚nw0170100 0.0 102350
15:00+3˚sw0175100 0.1 102263
18:00+1˚wnw1180100 0.3 102223
21:00n0186100 0.1 102225